| time (UTC) | temp F | wind direction | speed MPH | gust MPH | rain 1hr in | rain 24hr in | rain mn in | humidity % | barometer mb |
| 20260510173404 | 57 | 29 | 7.0 | 12.0 | 0.00 | 0.00 | 0.00 | 62 | 1014.7 |
| 20260510172904 | 58 | 26 | 5.0 | 14.0 | 0.00 | 0.00 | 0.00 | 62 | 1014.7 |
| 20260510172403 | 58 | 25 | 5.0 | 15.0 | 0.00 | 0.00 | 0.00 | 62 | 1014.7 |
| 20260510170904 | 59 | 29 | 5.0 | 12.0 | 0.00 | 0.00 | 0.00 | 60 | 1014.5 |
| 20260510170404 | 59 | 23 | 7.0 | 17.0 | 0.00 | 0.00 | 0.00 | 60 | 1014.5 |
| 20260510165904 | 59 | 27 | 6.0 | 12.0 | 0.00 | 0.00 | 0.00 | 61 | 1014.5 |
| 20260510165404 | 59 | 53 | 9.0 | 16.0 | 0.00 | 0.00 | 0.00 | 59 | 1014.5 |
| 20260510163904 | 59 | 19 | 7.0 | 13.0 | 0.00 | 0.00 | 0.00 | 59 | 1014.5 |
| 20260510162903 | 60 | 63 | 6.0 | 15.0 | 0.00 | 0.00 | 0.00 | 60 | 1014.5 |
| 20260510162403 | 60 | 45 | 5.0 | 17.0 | 0.00 | 0.00 | 0.00 | 59 | 1014.5 |
| 20260510160404 | 60 | 44 | 10.0 | 17.0 | 0.00 | 0.00 | 0.00 | 58 | 1014.5 |
| 20260510155904 | 60 | 21 | 7.0 | 16.0 | 0.00 | 0.00 | 0.00 | 58 | 1014.3 |
| 20260510155403 | 61 | 37 | 10.0 | 18.0 | 0.00 | 0.00 | 0.00 | 57 | 1014.3 |
| 20260510153904 | 61 | 49 | 8.0 | 18.0 | 0.00 | 0.00 | 0.00 | 58 | 1014.4 |
| 20260510153404 | 61 | 27 | 10.0 | 20.0 | 0.00 | 0.00 | 0.00 | 55 | 1014.5 |
| 20260510152904 | 61 | 37 | 7.0 | 14.0 | 0.00 | 0.00 | 0.00 | 55 | 1014.4 |
| 20260510152404 | 62 | 47 | 6.0 | 21.0 | 0.00 | 0.00 | 0.00 | 55 | 1014.5 |
| 20260510145403 | 61 | 51 | 7.0 | 16.0 | 0.00 | 0.00 | 0.00 | 58 | 1014.8 |
| 20260510143404 | 61 | 40 | 10.0 | 16.0 | 0.00 | 0.00 | 0.00 | 56 | 1014.9 |
| 20260510142903 | 62 | 43 | 7.0 | 15.0 | 0.00 | 0.00 | 0.00 | 54 | 1014.9 |
| 20260510142403 | 62 | 21 | 9.0 | 21.0 | 0.00 | 0.00 | 0.00 | 55 | 1014.9 |
| 20260510140904 | 62 | 20 | 10.0 | 15.0 | 0.00 | 0.00 | 0.00 | 54 | 1015.0 |
| 20260510140404 | 63 | 32 | 5.0 | 13.0 | 0.00 | 0.00 | 0.00 | 53 | 1015.1 |
| 20260510135903 | 63 | 49 | 5.0 | 13.0 | 0.00 | 0.00 | 0.00 | 50 | 1015.1 |
| 20260510135404 | 63 | 47 | 6.0 | 17.0 | 0.00 | 0.00 | 0.00 | 50 | 1015.1 |
| 20260510133403 | 63 | 50 | 6.0 | 15.0 | 0.00 | 0.00 | 0.00 | 51 | 1015.2 |
| 20260510132904 | 63 | 39 | 5.0 | 16.0 | 0.00 | 0.00 | 0.00 | 51 | 1015.2 |
| 20260510132404 | 63 | 26 | 6.0 | 18.0 | 0.00 | 0.00 | 0.00 | 50 | 1015.2 |
| 20260510130904 | 63 | 25 | 9.0 | 21.0 | 0.00 | 0.00 | 0.00 | 50 | 1015.2 |
| 20260510130404 | 64 | 28 | 6.0 | 13.0 | 0.00 | 0.00 | 0.00 | 50 | 1015.2 |
| 20260510125904 | 64 | 27 | 7.0 | 15.0 | 0.00 | 0.00 | 0.00 | 48 | 1015.3 |
| 20260510125403 | 64 | 55 | 5.0 | 17.0 | 0.00 | 0.00 | 0.00 | 51 | 1015.2 |
| 20260510123403 | 63 | 50 | 6.0 | 15.0 | 0.00 | 0.00 | 0.00 | 50 | 1015.5 |
| 20260510122903 | 63 | 67 | 6.0 | 12.0 | 0.00 | 0.00 | 0.00 | 51 | 1015.6 |
| 20260510122404 | 62 | 48 | 6.0 | 16.0 | 0.00 | 0.00 | 0.00 | 51 | 1015.6 |
| 20260510120903 | 63 | 53 | 6.0 | 15.0 | 0.00 | 0.00 | 0.00 | 50 | 1015.7 |
| 20260510120404 | 63 | 46 | 7.0 | 16.0 | 0.00 | 0.00 | 0.00 | 53 | 1015.8 |
| 20260510115904 | 62 | 46 | 7.0 | 16.0 | 0.00 | 0.00 | 0.00 | 51 | 1015.8 |
| 20260510113903 | 62 | 52 | 7.0 | 17.0 | 0.00 | 0.00 | 0.00 | 52 | 1016.0 |
| 20260510112903 | 62 | 53 | 5.0 | 17.0 | 0.00 | 0.00 | 0.00 | 54 | 1016.1 |
| 20260510112404 | 62 | 58 | 6.0 | 16.0 | 0.00 | 0.00 | 0.00 | 53 | 1016.1 |
| 20260510110904 | 62 | 87 | 5.0 | 17.0 | 0.00 | 0.00 | 0.00 | 54 | 1016.2 |
| 20260510110404 | 61 | 43 | 5.0 | 18.0 | 0.00 | 0.00 | 0.00 | 54 | 1016.2 |
| 20260510105903 | 62 | 66 | 6.0 | 20.0 | 0.00 | 0.00 | 0.00 | 52 | 1016.2 |
| 20260510103903 | 61 | 43 | 9.0 | 18.0 | 0.00 | 0.00 | 0.00 | 54 | 1016.2 |
| 20260510103404 | 61 | 53 | 3.0 | 16.0 | 0.00 | 0.00 | 0.00 | 55 | 1016.1 |
| 20260510102905 | 61 | 51 | 7.0 | 16.0 | 0.00 | 0.00 | 0.00 | 55 | 1016.2 |
| 20260510102403 | 60 | 37 | 7.0 | 21.0 | 0.00 | 0.00 | 0.00 | 55 | 1016.3 |
| 20260510100904 | 60 | 67 | 5.0 | 14.0 | 0.00 | 0.00 | 0.00 | 54 | 1016.4 |
| 20260510100403 | 61 | 23 | 5.0 | 18.0 | 0.00 | 0.00 | 0.00 | 54 | 1016.4 |
| 20260510095404 | 60 | 20 | 8.0 | 20.0 | 0.00 | 0.00 | 0.00 | 53 | 1016.5 |
| 20260510093904 | 59 | 60 | 7.0 | 14.0 | 0.00 | 0.00 | 0.00 | 55 | 1016.7 |
| 20260510093404 | 60 | 34 | 6.0 | 14.0 | 0.00 | 0.00 | 0.00 | 56 | 1016.6 |
| 20260510092904 | 59 | 15 | 4.0 | 9.0 | 0.00 | 0.00 | 0.00 | 58 | 1016.6 |
| 20260510092404 | 59 | 25 | 2.0 | 20.0 | 0.00 | 0.00 | 0.00 | 60 | 1016.6 |
| 20260510090904 | 58 | 18 | 6.0 | 13.0 | 0.00 | 0.00 | 0.00 | 59 | 1016.6 |
| 20260510090404 | 59 | 37 | 3.0 | 10.0 | 0.00 | 0.00 | 0.00 | 60 | 1016.5 |
| 20260510085904 | 58 | 30 | 2.0 | 10.0 | 0.00 | 0.00 | 0.00 | 58 | 1016.6 |
| 20260510085404 | 59 | 51 | 5.0 | 18.0 | 0.00 | 0.00 | 0.00 | 58 | 1016.5 |
| 20260510083904 | 58 | 0 | 3.0 | 17.0 | 0.00 | 0.00 | 0.00 | 59 | 1016.6 |
| 20260510083404 | 58 | 29 | 5.0 | 18.0 | 0.00 | 0.00 | 0.00 | 59 | 1016.4 |
| 20260510082903 | 57 | 39 | 7.0 | 15.0 | 0.00 | 0.00 | 0.00 | 59 | 1016.3 |
| 20260510082404 | 57 | 35 | 7.0 | 20.0 | 0.00 | 0.00 | 0.00 | 59 | 1016.2 |
| 20260510080904 | 57 | 32 | 7.0 | 20.0 | 0.00 | 0.00 | 0.00 | 60 | 1015.9 |
| 20260510080404 | 56 | 66 | 7.0 | 15.0 | 0.00 | 0.00 | 0.00 | 61 | 1016.1 |
| 20260510075903 | 56 | 37 | 8.0 | 20.0 | 0.00 | 0.00 | 0.00 | 63 | 1016.0 |
| 20260510073904 | 55 | 27 | 9.0 | 16.0 | 0.00 | 0.00 | 0.00 | 64 | 1015.9 |
| 20260510073403 | 55 | 49 | 6.0 | 18.0 | 0.00 | 0.00 | 0.00 | 66 | 1016.0 |
| 20260510072904 | 55 | 49 | 6.0 | 17.0 | 0.00 | 0.00 | 0.00 | 65 | 1016.0 |
| 20260510072405 | 54 | 41 | 11.0 | 25.0 | 0.00 | 0.00 | 0.00 | 66 | 1015.9 |
| 20260510070904 | 54 | 29 | 11.0 | 17.0 | 0.00 | 0.00 | 0.00 | 66 | 1015.8 |
| 20260510065904 | 53 | 38 | 12.0 | 26.0 | 0.00 | 0.00 | 0.00 | 67 | 1015.8 |
| 20260510065403 | 53 | 43 | 12.0 | 24.0 | 0.00 | 0.00 | 0.00 | 68 | 1015.8 |
| 20260510063404 | 51 | 53 | 7.0 | 15.0 | 0.00 | 0.00 | 0.00 | 71 | 1015.7 |
| 20260510062404 | 50 | 36 | 10.0 | 21.0 | 0.00 | 0.00 | 0.00 | 72 | 1015.6 |
| 20260510060404 | 50 | 42 | 8.0 | 17.0 | 0.00 | 0.00 | 0.00 | 73 | 1015.6 |
| 20260510055904 | 50 | 39 | 10.0 | 17.0 | 0.00 | 0.00 | 0.00 | 73 | 1015.5 |
| 20260510055404 | 50 | 37 | 8.0 | 18.0 | 0.00 | 0.00 | 0.00 | 73 | 1015.6 |
| 20260510053904 | 50 | 38 | 8.0 | 17.0 | 0.00 | 0.00 | 0.00 | 72 | 1015.6 |
| 20260510052903 | 51 | 45 | 8.0 | 20.0 | 0.00 | 0.00 | 0.00 | 70 | 1015.5 |
| 20260510052404 | 51 | 45 | 9.0 | 24.0 | 0.00 | 0.00 | 0.00 | 70 | 1015.7 |
| 20260510050904 | 51 | 29 | 9.0 | 17.0 | 0.00 | 0.00 | 0.00 | 69 | 1015.7 |
| 20260510050403 | 51 | 35 | 8.0 | 16.0 | 0.00 | 0.00 | 0.00 | 68 | 1015.6 |
| 20260510045404 | 52 | 22 | 6.0 | 16.0 | 0.00 | 0.00 | 0.00 | 68 | 1015.6 |
| 20260510043903 | 52 | 52 | 9.0 | 18.0 | 0.00 | 0.00 | 0.00 | 65 | 1015.6 |
| 20260510043404 | 53 | 53 | 9.0 | 18.0 | 0.00 | 0.00 | 0.00 | 65 | 1015.5 |
| 20260510042904 | 53 | 41 | 7.0 | 15.0 | 0.00 | 0.00 | 0.00 | 65 | 1015.5 |
| 20260510042404 | 53 | 49 | 6.0 | 21.0 | 0.00 | 0.00 | 0.00 | 65 | 1015.5 |
| 20260510040403 | 54 | 44 | 6.0 | 14.0 | 0.00 | 0.00 | 0.00 | 65 | 1015.5 |
| 20260510035904 | 54 | 38 | 7.0 | 13.0 | 0.00 | 0.00 | 0.00 | 65 | 1015.6 |
| 20260510035403 | 54 | 38 | 6.0 | 15.0 | 0.00 | 0.00 | 0.00 | 65 | 1015.6 |
| 20260510033904 | 55 | 25 | 6.0 | 14.0 | 0.00 | 0.00 | 0.00 | 66 | 1015.7 |
| 20260510033404 | 55 | 45 | 7.0 | 16.0 | 0.00 | 0.00 | 0.00 | 66 | 1015.7 |
| 20260510032903 | 55 | 34 | 5.0 | 9.0 | 0.00 | 0.00 | 0.00 | 66 | 1015.7 |
| 20260510032403 | 55 | 39 | 6.0 | 14.0 | 0.00 | 0.00 | 0.00 | 67 | 1015.8 |
| 20260510030905 | 55 | 32 | 7.0 | 16.0 | 0.00 | 0.00 | 0.00 | 67 | 1015.8 |
| 20260510030403 | 56 | 25 | 6.0 | 12.0 | 0.00 | 0.00 | 0.00 | 66 | 1015.8 |
| 20260510025404 | 56 | 21 | 5.0 | 15.0 | 0.00 | 0.00 | 0.00 | 64 | 1015.8 |
| 20260510023904 | 57 | 357 | 5.0 | 9.0 | 0.00 | 0.00 | 0.00 | 60 | 1015.6 |
| 20260510022904 | 57 | 58 | 4.0 | 10.0 | 0.00 | 0.00 | 0.00 | 61 | 1015.8 |
| 20260510020904 | 57 | 45 | 3.0 | 12.0 | 0.00 | 0.00 | 0.00 | 63 | 1015.8 |
| 20260510020404 | 57 | 41 | 4.0 | 10.0 | 0.00 | 0.00 | 0.00 | 63 | 1015.8 |
| 20260510015904 | 57 | 53 | 7.0 | 14.0 | 0.00 | 0.00 | 0.00 | 63 | 1015.8 |
| 20260510015404 | 57 | 46 | 7.0 | 17.0 | 0.00 | 0.00 | 0.00 | 63 | 1015.8 |
| 20260510013904 | 57 | 51 | 3.0 | 10.0 | 0.00 | 0.00 | 0.00 | 65 | 1015.9 |
| 20260510013404 | 57 | 67 | 4.0 | 9.0 | 0.00 | 0.00 | 0.00 | 65 | 1016.0 |
| 20260510012403 | 57 | 38 | 4.0 | 12.0 | 0.00 | 0.00 | 0.00 | 66 | 1016.1 |
| 20260510010904 | 57 | 53 | 4.0 | 12.0 | 0.00 | 0.00 | 0.00 | 67 | 1016.3 |
| 20260510010404 | 58 | 51 | 3.0 | 10.0 | 0.00 | 0.00 | 0.00 | 68 | 1016.3 |
| 20260510005904 | 58 | 76 | 4.0 | 10.0 | 0.00 | 0.00 | 0.00 | 68 | 1016.3 |
| 20260510005404 | 58 | 69 | 5.0 | 12.0 | 0.00 | 0.00 | 0.00 | 67 | 1016.3 |
| 20260510003903 | 58 | 44 | 4.0 | 9.0 | 0.00 | 0.00 | 0.00 | 68 | 1016.3 |
| 20260510003404 | 58 | 51 | 5.0 | 12.0 | 0.00 | 0.00 | 0.00 | 68 | 1016.3 |
| 20260510002903 | 59 | 44 | 6.0 | 18.0 | 0.00 | 0.00 | 0.00 | 67 | 1016.4 |
| 20260510002403 | 59 | 49 | 7.0 | 15.0 | 0.00 | 0.00 | 0.00 | 68 | 1016.3 |
| 20260509235904 | 58 | 42 | 5.0 | 14.0 | 0.00 | 0.00 | 0.00 | 69 | 1016.3 |
| 20260509235403 | 58 | 27 | 5.0 | 14.0 | 0.00 | 0.00 | 0.00 | 69 | 1016.3 |
| 20260509233403 | 59 | 32 | 7.0 | 15.0 | 0.00 | 0.00 | 0.00 | 68 | 1016.2 |
| 20260509232904 | 59 | 28 | 7.0 | 16.0 | 0.00 | 0.00 | 0.00 | 68 | 1016.2 |
| 20260509232403 | 59 | 31 | 7.0 | 16.0 | 0.00 | 0.00 | 0.00 | 68 | 1016.1 |
| 20260509230904 | 59 | 16 | 6.0 | 17.0 | 0.00 | 0.00 | 0.00 | 67 | 1016.3 |
| 20260509225904 | 60 | 24 | 5.0 | 12.0 | 0.00 | 0.00 | 0.00 | 66 | 1016.3 |
| 20260509223904 | 60 | 15 | 6.0 | 10.0 | 0.00 | 0.00 | 0.00 | 64 | 1016.3 |
| 20260509223403 | 60 | 29 | 7.0 | 15.0 | 0.00 | 0.00 | 0.00 | 64 | 1016.4 |
| 20260509222904 | 61 | 31 | 5.0 | 12.0 | 0.00 | 0.00 | 0.00 | 63 | 1016.4 |
| 20260509222403 | 61 | 31 | 6.0 | 14.0 | 0.00 | 0.00 | 0.00 | 62 | 1016.3 |
| 20260509220904 | 61 | 22 | 7.0 | 16.0 | 0.00 | 0.00 | 0.00 | 61 | 1016.5 |
| 20260509220404 | 61 | 35 | 7.0 | 14.0 | 0.00 | 0.00 | 0.00 | 61 | 1016.5 |
| 20260509213903 | 61 | 21 | 5.0 | 9.0 | 0.00 | 0.00 | 0.00 | 63 | 1016.5 |
| 20260509213404 | 60 | 14 | 5.0 | 10.0 | 0.00 | 0.00 | 0.00 | 63 | 1016.5 |
| 20260509212903 | 60 | 26 | 4.0 | 9.0 | 0.00 | 0.00 | 0.00 | 63 | 1016.5 |
| 20260509212403 | 60 | 9 | 3.0 | 13.0 | 0.00 | 0.00 | 0.00 | 63 | 1016.5 |
| 20260509210903 | 60 | 29 | 5.0 | 7.0 | 0.00 | 0.00 | 0.00 | 63 | 1016.3 |
| 20260509210404 | 61 | 20 | 5.0 | 9.0 | 0.00 | 0.00 | 0.00 | 63 | 1016.3 |
| 20260509205404 | 61 | 20 | 5.0 | 12.0 | 0.00 | 0.00 | 0.00 | 62 | 1016.3 |
| 20260509203903 | 61 | 29 | 5.0 | 12.0 | 0.00 | 0.00 | 0.00 | 63 | 1016.3 |
| 20260509203404 | 61 | 42 | 6.0 | 12.0 | 0.00 | 0.00 | 0.00 | 62 | 1016.3 |
| 20260509202904 | 61 | 21 | 4.0 | 10.0 | 0.00 | 0.00 | 0.00 | 63 | 1016.3 |
| 20260509200904 | 62 | 18 | 4.0 | 9.0 | 0.00 | 0.00 | 0.00 | 63 | 1016.1 |
| 20260509200403 | 62 | 6 | 4.0 | 8.0 | 0.00 | 0.00 | 0.00 | 62 | 1016.0 |
| 20260509195903 | 62 | 29 | 5.0 | 10.0 | 0.00 | 0.00 | 0.00 | 63 | 1016.0 |
| 20260509193904 | 63 | 15 | 2.0 | 7.0 | 0.00 | 0.00 | 0.00 | 62 | 1016.0 |
| 20260509193404 | 63 | 28 | 2.0 | 3.0 | 0.00 | 0.00 | 0.00 | 62 | 1016.0 |
| 20260509192903 | 63 | 65 | 0.0 | 0.0 | 0.00 | 0.00 | 0.00 | 61 | 1016.1 |
| 20260509192404 | 63 | 65 | 0.0 | 0.0 | 0.00 | 0.00 | 0.00 | 61 | 1016.1 |
| 20260509190904 | 63 | 67 | 0.0 | 0.0 | 0.00 | 0.00 | 0.00 | 60 | 1016.1 |
| 20260509190403 | 63 | 67 | 0.0 | 0.0 | 0.00 | 0.00 | 0.00 | 59 | 1016.1 |
| 20260509185904 | 63 | 67 | 0.0 | 0.0 | 0.00 | 0.00 | 0.00 | 58 | 1016.0 |
| 20260509185404 | 63 | 67 | 0.0 | 0.0 | 0.00 | 0.00 | 0.00 | 57 | 1016.0 |
| 20260509183904 | 64 | 67 | 0.0 | 0.0 | 0.00 | 0.00 | 0.00 | 56 | 1016.1 |
| 20260509183403 | 64 | 67 | 0.0 | 0.0 | 0.00 | 0.00 | 0.00 | 56 | 1016.1 |
| 20260509180904 | 64 | 61 | 0.0 | 3.0 | 0.00 | 0.00 | 0.00 | 55 | 1016.0 |
| 20260509180404 | 64 | 58 | 2.0 | 5.0 | 0.00 | 0.00 | 0.00 | 55 | 1016.0 |
| 20260509175403 | 65 | 84 | 2.0 | 5.0 | 0.00 | 0.00 | 0.00 | 54 | 1016.0 |